GFSFLT2_con_lsi_261.txt.gz
Lid_Strength_Index
6 6 5 5 5 5 5 6 5 3 2 2 2 3 3 4 4 4 5 5 4 4 4 4 3 3 3
6 6 6 6 7 7 7 7 7 4 3 3 4 4 5 5 5 5 5 5 6 6 6 5 5 5 5
7 6 7 7 8 8 9 8 8 6 5 5 5 5 6 6 6 6 6 6 6 7 7 7 7 6 6
7 7 8 8 8 9 10 10 10 8 7 6 6 6 6 6 6 6 7 7 7 7 7 7 7 7 7
8 9 9 9 9 9 10 10 10 10 9 9 9 9 8 7 6 6 7 7 8 7 7 8 8 8 7
9 9 9 9 9 9 10 11 11 12 11 11 11 12 11 7 6 7 7 8 8 8 8 8 8 8 8
9 10 10 11 11 11 12 13 14 15 14 15 14 13 12 10 7 7 8 8 8 8 8 8 8 8 8
12 13 12 12 11 12 13 16 15 15 14 15 16 15 14 13 8 8 9 9 9 9 9 9 9 9 9
9 9 8 8 10 11 13 14 14 15 15 15 14 14 14 14 13 9 9 9 9 9 10 10 10 10 12
13 13 13 12 11 13 13 15 15 16 15 16 15 15 16 14 14 14 14 11 11 11 11 10 10 13 13
14 14 13 13 14 14 14 14 16 17 15 17 18 17 19 17 15 15 15 15 15 14 11 10 9 10 13
14 14 14 14 14 14 14 14 14 15 15 15 23 20 24 22 18 15 15 15 14 14 14 12 11 11 10
13 14 14 14 14 14 14 14 14 14 14 15 17 16 20 21 19 17 16 14 14 15 15 14 14 14 14
13 14 14 15 16 15 17 16 18 17 14 14 15 17 22 18 18 20 17 20 15 15 15 15 14 13 14
14 14 14 15 15 16 18 20 22 21 19 17 17 17 17 20 22 18 18 18 17 16 16 16 15 14 14
14 15 17 18 19 19 19 22 22 20 21 20 21 22 21 19 14 18 18 19 17 16 16 19 17 14 13
15 16 19 20 19 21 20 20 21 20 22 24 27 28 28 25 18 12 20 19 19 18 17 18 18 14 13

GFSFLT2_con_lsi_264.txt.gz
Lid_Strength_Index
6 5 5 6 6 6 5 6 5 2 2 2 2 3 4 4 4 4 4 4 4 4 4 4 4 4 4
6 6 6 6 6 7 7 6 6 3 2 3 3 4 4 4 5 5 5 5 6 6 6 6 6 6 5
7 6 7 7 8 8 8 8 7 6 5 4 4 5 5 6 5 6 6 6 7 7 8 8 7 7 6
7 7 7 8 7 9 10 9 9 8 7 6 6 6 6 6 6 7 7 7 8 8 8 8 8 7 7
8 8 9 9 9 9 10 10 11 11 9 9 9 9 8 7 7 7 7 8 8 8 8 7 8 8 8
8 9 9 9 8 9 10 10 11 12 10 11 11 12 12 8 6 7 7 8 8 8 8 8 8 8 8
9 9 10 10 10 10 10 11 13 16 14 15 14 13 12 11 7 7 8 8 8 8 8 9 9 9 9
10 11 12 12 12 12 13 16 15 14 14 15 15 15 14 13 8 8 8 8 9 9 9 9 9 9 9
8 8 8 8 11 12 14 14 14 14 15 14 14 14 14 14 13 9 9 9 9 10 10 10 10 10 12
14 13 13 12 11 13 12 14 15 16 15 16 15 15 17 14 14 14 14 10 11 11 10 10 10 13 13
14 14 14 14 14 14 14 13 16 17 15 16 18 17 19 18 15 15 15 15 15 14 12 10 9 10 13
14 15 14 14 14 14 14 14 14 15 15 15 23 20 24 23 19 15 15 15 14 15 14 12 11 11 10
14 14 14 13 13 14 14 14 14 14 14 15 18 17 21 23 22 19 17 15 14 16 15 14 14 14 14
14 14 13 14 15 15 17 17 19 18 15 15 16 18 23 20 20 21 17 20 15 16 15 15 14 13 14
14 14 14 14 15 16 18 20 23 22 20 18 18 17 18 21 24 19 19 19 17 17 17 17 15 14 14
14 14 14 16 18 18 19 22 23 21 22 21 22 23 21 19 16 19 19 19 18 17 16 19 17 14 14
14 15 17 19 18 20 20 21 22 22 22 23 25 26 27 26 18 13 20 20 19 19 18 18 19 15 14

GFSFLT2_con_lsi_267.txt.gz
Lid_Strength_Index
4 3 4 4 4 4 4 4 3 2 1 1 2 2 2 3 3 3 3 4 4 4 4 4 4 4 4
4 5 5 5 5 6 6 6 5 2 2 2 3 3 4 4 4 4 5 6 6 7 7 6 6 6 5
5 4 5 6 7 7 7 7 7 5 4 3 4 4 5 4 5 5 6 7 7 7 8 8 7 7 7
5 6 6 7 6 7 8 8 9 7 7 6 5 5 5 5 6 7 7 8 8 8 8 8 8 8 8
6 8 8 8 8 7 9 9 11 10 9 9 8 8 7 6 7 7 7 8 8 8 8 8 8 8 8
7 8 8 8 8 8 10 10 11 12 10 11 10 9 8 7 7 7 8 8 8 8 8 8 8 8 8
8 8 9 8 8 9 9 10 12 12 10 11 10 9 9 8 7 7 8 8 8 8 8 8 8 8 8
8 9 9 9 8 8 9 12 12 11 10 10 10 10 10 8 7 8 8 8 8 9 9 9 9 9 10
8 8 8 9 10 10 11 11 11 12 12 11 11 11 10 10 10 9 8 9 9 10 10 10 9 10 11
13 12 12 10 10 10 10 10 12 12 12 12 12 12 12 11 11 11 11 10 11 11 10 10 10 10 11
13 13 13 13 13 12 12 11 12 14 12 13 13 14 14 13 12 11 12 12 12 12 12 11 10 10 11
13 13 14 13 13 13 12 12 12 13 13 13 14 14 14 15 14 13 12 12 12 13 12 11 11 11 10
13 13 13 13 13 13 12 12 13 13 13 13 13 14 14 14 15 14 14 13 13 13 12 12 12 11 12
13 13 13 13 13 12 13 14 14 14 14 14 14 14 15 14 15 14 15 15 13 13 13 12 11 11 11
13 13 13 13 13 13 14 15 15 15 15 15 15 15 15 15 15 15 15 14 14 13 13 13 12 11 11
12 13 13 13 14 14 15 15 15 15 15 16 16 16 16 16 14 14 14 14 13 13 13 13 13 11 11
12 13 13 13 14 15 15 15 16 16 16 17 16 17 18 18 15 13 13 13 13 13 13 13 13 12 11

GFSFLT2_con_lsi_270.txt.gz
Lid_Strength_Index
3 3 3 3 3 2 2 2 2 1 1 1 2 2 2 2 3 3 4 4 4 4 4 5 5 4 4
4 4 4 3 4 4 5 5 4 2 1 2 2 3 3 3 3 4 5 5 5 6 6 6 6 6 6
5 4 5 5 6 6 6 6 6 5 3 3 3 3 3 4 5 6 6 7 7 7 7 7 7 7 7
5 6 6 6 6 7 8 7 8 7 6 5 5 5 4 5 6 7 7 7 7 7 8 8 8 8 8
6 6 7 7 7 7 8 9 10 10 9 9 8 8 7 6 7 7 8 8 8 8 8 8 9 9 8
7 7 7 7 8 7 9 10 10 11 9 10 9 8 7 6 6 7 8 8 8 8 8 9 9 9 9
7 6 7 7 7 8 9 10 10 11 9 10 8 9 8 7 7 8 8 8 8 8 8 8 9 8 9
6 7 8 9 8 8 9 12 11 10 9 9 8 8 8 7 7 7 7 8 8 9 9 9 9 9 9
8 8 8 8 7 8 9 10 11 11 11 9 9 9 8 8 8 8 8 9 9 9 9 9 9 9 10
11 10 9 9 9 8 9 9 11 11 11 11 11 10 11 9 9 9 9 10 11 10 10 10 10 10 10
12 12 12 11 11 11 10 9 10 12 12 10 11 12 11 12 10 10 10 11 11 11 11 11 10 10 10
12 12 12 12 12 12 12 12 12 12 12 11 12 12 12 13 13 12 11 11 11 12 12 11 11 11 11
12 12 12 12 12 12 12 12 12 12 12 12 11 13 12 12 13 13 13 12 12 12 12 11 11 11 11
12 12 12 12 12 12 13 13 12 13 13 13 13 12 13 13 12 13 13 13 12 12 12 12 11 10 10
12 12 12 12 13 12 12 12 12 13 13 13 13 13 13 12 13 13 13 13 13 13 13 12 10 10 10
11 11 12 12 13 13 12 12 13 13 13 13 13 13 13 13 13 14 13 13 12 12 12 12 12 10 10
10 11 11 12 13 13 13 13 13 13 14 13 13 14 14 15 14 13 13 12 12 12 12 12 12 11 11